Time,TemperatureF,DewpointF,PressureIn,WindDirection,WindDirectionDegrees,WindSpeedMPH,WindSpeedGustMPH,Humidity,HourlyPrecipIn,Conditions,Clouds,dailyrainin,SolarRadiationWatts/m^2,SoftwareType,DateUTC
2013-06-22 00:00:00,82.8,70.3,29.76,SW,225,1.0,1.0,66,0.00,,,0.00,0,Wunderground v.1.15,2013-06-22 05:00:00,
2013-06-22 00:10:00,82.8,69.8,29.77,SSW,213,2.0,4.0,65,0.00,,,0.00,0,Wunderground v.1.15,2013-06-22 05:10:00,
2013-06-22 00:20:00,82.6,69.6,29.76,WSW,252,2.0,2.0,65,0.00,,,0.00,0,Wunderground v.1.15,2013-06-22 05:20:00,
2013-06-22 00:30:00,82.4,69.9,29.76,SW,216,1.0,1.0,66,0.00,,,0.00,0,Wunderground v.1.15,2013-06-22 05:30:00,
2013-06-22 00:40:00,82.2,69.7,29.77,SSW,208,2.0,2.0,66,0.00,,,0.00,0,Wunderground v.1.15,2013-06-22 05:40:00,
2013-06-22 00:50:00,82.4,69.4,29.77,SSW,210,2.0,3.0,65,0.00,,,0.00,0,Wunderground v.1.15,2013-06-22 05:50:00,
2013-06-22 01:00:00,82.2,69.7,29.77,WSW,240,1.0,4.0,66,0.00,,,0.00,0,Wunderground v.1.15,2013-06-22 06:00:00,
2013-06-22 01:10:00,82.2,69.7,29.77,SSW,194,2.0,3.0,66,0.00,,,0.00,0,Wunderground v.1.15,2013-06-22 06:10:00,
2013-06-22 01:20:00,82.6,69.6,29.76,SW,227,3.0,6.0,65,0.00,,,0.00,0,Wunderground v.1.15,2013-06-22 06:20:00,
2013-06-22 01:30:00,82.2,70.1,29.76,SSW,209,3.0,3.0,67,0.00,,,0.00,0,Wunderground v.1.15,2013-06-22 06:30:00,
2013-06-22 01:40:00,82.2,70.1,29.75,SW,218,3.0,3.0,67,0.00,,,0.00,0,Wunderground v.1.15,2013-06-22 06:40:00,
2013-06-22 01:50:00,81.8,70.2,29.76,SW,217,2.0,3.0,68,0.00,,,0.00,0,Wunderground v.1.15,2013-06-22 06:50:00,
2013-06-22 02:00:00,81.2,70.1,29.76,SSW,205,2.0,2.0,69,0.00,,,0.00,0,Wunderground v.1.15,2013-06-22 07:00:00,
2013-06-22 02:10:00,81.1,70.4,29.77,SW,214,1.0,1.0,70,0.00,,,0.00,0,Wunderground v.1.15,2013-06-22 07:10:00,
2013-06-22 02:20:00,80.9,70.2,29.78,WSW,246,1.0,2.0,70,0.00,,,0.00,0,Wunderground v.1.15,2013-06-22 07:20:00,
2013-06-22 02:30:00,80.7,70.4,29.78,South,179,1.0,1.0,71,0.00,,,0.00,0,Wunderground v.1.15,2013-06-22 07:30:00,
2013-06-22 02:40:00,80.7,70.4,29.80,SW,224,1.0,1.0,71,0.00,,,0.00,0,Wunderground v.1.15,2013-06-22 07:40:00,
2013-06-22 02:50:00,80.5,70.6,29.81,WSW,251,0.0,0.0,72,0.00,,,0.00,0,Wunderground v.1.15,2013-06-22 07:50:00,
2013-06-22 03:00:00,80.3,70.4,29.81,SW,232,0.0,0.0,72,0.00,,,0.00,0,Wunderground v.1.15,2013-06-22 08:00:00,
2013-06-22 03:10:00,80.1,71.1,29.81,SW,229,0.0,0.0,74,0.00,,,0.00,0,Wunderground v.1.15,2013-06-22 08:10:00,
2013-06-22 03:20:00,79.9,70.9,29.85,NW,307,0.0,0.0,74,0.00,,,0.00,0,Wunderground v.1.15,2013-06-22 08:20:00,
2013-06-22 03:30:00,79.9,59.0,29.85,WNW,294,3.0,11.0,49,0.00,,,0.00,0,Wunderground v.1.15,2013-06-22 08:30:00,
2013-06-22 03:40:00,80.3,58.8,29.86,NW,321,3.0,9.0,48,0.00,,,0.00,0,Wunderground v.1.15,2013-06-22 08:40:00,
2013-06-22 03:50:00,79.6,59.3,29.86,NNE,30,5.0,5.0,50,0.00,,,0.00,0,Wunderground v.1.15,2013-06-22 08:50:00,
2013-06-22 04:00:00,78.3,59.2,29.86,NE,43,4.0,11.0,52,0.00,,,0.00,0,Wunderground v.1.15,2013-06-22 09:00:00,
2013-06-22 04:10:00,77.2,59.3,29.85,NNE,26,3.0,3.0,54,0.00,,,0.00,0,Wunderground v.1.15,2013-06-22 09:10:00,
2013-06-22 04:20:00,76.3,60.4,29.83,ENE,63,1.0,2.0,58,0.00,,,0.00,0,Wunderground v.1.15,2013-06-22 09:20:00,
2013-06-22 04:30:00,75.8,60.0,29.83,East,88,1.0,1.0,58,0.00,,,0.00,0,Wunderground v.1.15,2013-06-22 09:30:00,
2013-06-22 04:40:00,75.4,59.1,29.82,East,90,0.0,2.0,57,0.00,,,0.00,0,Wunderground v.1.15,2013-06-22 09:40:00,
2013-06-22 04:50:00,76.3,58.9,29.81,ESE,123,3.0,3.0,55,0.00,,,0.00,0,Wunderground v.1.15,2013-06-22 09:50:00,
2013-06-22 05:00:00,76.0,59.7,29.81,ESE,104,1.0,1.0,57,0.00,,,0.00,0,Wunderground v.1.15,2013-06-22 10:00:00,
2013-06-22 05:10:00,75.1,60.3,29.84,ESE,104,0.0,0.0,60,0.00,,,0.00,0,Wunderground v.1.15,2013-06-22 10:10:00,
2013-06-22 05:20:00,74.0,61.0,29.87,ESE,104,0.0,0.0,64,0.00,,,0.00,0,Wunderground v.1.15,2013-06-22 10:20:00,
2013-06-22 05:30:00,74.0,60.2,29.87,ENE,63,0.0,2.0,62,0.00,,,0.00,0,Wunderground v.1.15,2013-06-22 10:30:00,
2013-06-22 05:40:00,74.7,61.7,29.87,ENE,62,0.0,0.0,64,0.00,,,0.00,0,Wunderground v.1.15,2013-06-22 10:40:00,
2013-06-22 05:50:00,74.4,61.4,29.88,ENE,62,0.0,0.0,64,0.00,,,0.00,0,Wunderground v.1.15,2013-06-22 10:50:00,
2013-06-22 06:00:00,74.2,61.7,29.88,ENE,62,0.0,0.0,65,0.00,,,0.00,0,Wunderground v.1.15,2013-06-22 11:00:00,
2013-06-22 06:10:00,74.6,62.1,29.89,ENE,62,0.0,0.0,65,0.00,,,0.00,5,Wunderground v.1.15,2013-06-22 11:10:00,
2013-06-22 06:20:00,74.6,62.5,29.89,ENE,62,0.0,0.0,66,0.00,,,0.00,23,Wunderground v.1.15,2013-06-22 11:20:00,
2013-06-22 06:30:00,74.7,62.1,29.89,ENE,62,0.0,0.0,65,0.00,,,0.00,49,Wunderground v.1.15,2013-06-22 11:30:00,
2013-06-22 06:40:00,75.1,63.0,29.89,ENE,62,0.0,0.0,66,0.00,,,0.00,70,Wunderground v.1.15,2013-06-22 11:40:00,
2013-06-22 06:50:00,75.6,62.1,29.89,ENE,62,0.0,0.0,63,0.00,,,0.00,81,Wunderground v.1.15,2013-06-22 11:50:00,
2013-06-22 07:00:00,76.5,63.9,29.89,ENE,62,0.0,0.0,65,0.00,,,0.00,81,Wunderground v.1.15,2013-06-22 12:00:00,
2013-06-22 07:10:00,76.5,62.0,29.88,ENE,62,0.0,0.0,61,0.00,,,0.00,100,Wunderground v.1.15,2013-06-22 12:10:00,
2013-06-22 07:20:00,77.0,62.0,29.88,ENE,62,0.0,0.0,60,0.00,,,0.00,107,Wunderground v.1.15,2013-06-22 12:20:00,
2013-06-22 07:30:00,77.2,61.8,29.88,East,96,3.0,3.0,59,0.00,,,0.00,116,Wunderground v.1.15,2013-06-22 12:30:00,
2013-06-22 07:40:00,77.9,62.4,29.86,NE,55,4.0,5.0,59,0.00,,,0.00,134,Wunderground v.1.15,2013-06-22 12:40:00,
2013-06-22 07:50:00,78.1,62.6,29.85,ENE,63,7.0,7.0,59,0.00,,,0.00,156,Wunderground v.1.15,2013-06-22 12:50:00,
2013-06-22 08:00:00,79.0,63.0,29.85,ENE,60,2.0,2.0,58,0.00,,,0.00,160,Wunderground v.1.15,2013-06-22 13:00:00,
2013-06-22 08:10:00,79.4,62.8,29.86,East,93,3.0,3.0,57,0.00,,,0.00,202,Wunderground v.1.15,2013-06-22 13:10:00,
2013-06-22 08:20:00,79.2,62.1,29.87,ENE,63,6.0,6.0,56,0.00,,,0.00,283,Wunderground v.1.15,2013-06-22 13:20:00,
2013-06-22 08:30:00,79.8,63.2,29.87,NNE,25,5.0,9.0,57,0.00,,,0.00,404,Wunderground v.1.15,2013-06-22 13:30:00,
2013-06-22 08:40:00,79.2,63.1,29.88,NNW,327,7.0,7.0,58,0.00,,,0.00,95,Wunderground v.1.15,2013-06-22 13:40:00,
2013-06-22 08:50:00,77.7,63.2,29.91,North,10,2.0,2.0,61,0.00,,,0.00,186,Wunderground v.1.15,2013-06-22 13:50:00,
2013-06-22 09:00:00,76.8,64.6,29.91,NNW,346,3.0,3.0,66,0.00,,,0.00,229,Wunderground v.1.15,2013-06-22 14:00:00,
2013-06-22 09:10:00,76.7,64.5,29.91,NNE,12,3.0,5.0,66,0.00,,,0.00,418,Wunderground v.1.15,2013-06-22 14:10:00,
2013-06-22 09:20:00,76.1,64.3,29.92,North,10,4.0,7.0,67,0.00,,,0.00,213,Wunderground v.1.15,2013-06-22 14:20:00,
2013-06-22 09:30:00,75.4,64.5,29.92,NNE,14,7.0,7.0,69,0.00,,,0.00,144,Wunderground v.1.15,2013-06-22 14:30:00,
2013-06-22 09:40:00,74.6,63.3,29.94,NNE,27,7.0,14.0,68,0.00,,,0.00,49,Wunderground v.1.15,2013-06-22 14:40:00,
2013-06-22 09:50:00,73.7,62.5,29.94,NE,34,9.0,9.0,68,0.00,,,0.00,62,Wunderground v.1.15,2013-06-22 14:50:00,
2013-06-22 10:00:00,73.7,62.5,29.94,ENE,59,11.0,13.0,68,0.00,,,0.00,221,Wunderground v.1.15,2013-06-22 15:00:00,
2013-06-22 10:10:00,75.1,63.4,29.92,ENE,71,10.0,15.0,67,0.00,,,0.00,817,Wunderground v.1.15,2013-06-22 15:10:00,
2013-06-22 10:20:00,76.8,64.1,29.86,East,79,10.0,10.0,65,0.00,,,0.00,756,Wunderground v.1.15,2013-06-22 15:20:00,
2013-06-22 10:30:00,77.9,63.8,29.86,East,80,9.0,14.0,62,0.00,,,0.00,803,Wunderground v.1.15,2013-06-22 15:30:00,
2013-06-22 10:40:00,76.8,63.7,29.86,ESE,111,10.0,10.0,64,0.00,,,0.00,156,Wunderground v.1.15,2013-06-22 15:40:00,
2013-06-22 10:50:00,77.6,64.0,29.86,East,101,7.0,7.0,63,0.00,,,0.00,724,Wunderground v.1.15,2013-06-22 15:50:00,
2013-06-22 11:00:00,79.6,65.4,29.86,ESE,119,9.0,9.0,62,0.00,,,0.00,766,Wunderground v.1.15,2013-06-22 16:00:00,
2013-06-22 11:10:00,81.4,64.2,29.86,East,88,10.0,10.0,56,0.00,,,0.00,789,Wunderground v.1.15,2013-06-22 16:10:00,
2013-06-22 11:20:00,82.2,65.4,29.84,ESE,109,10.0,10.0,57,0.00,,,0.00,800,Wunderground v.1.15,2013-06-22 16:20:00,
2013-06-22 11:30:00,82.6,65.8,29.84,East,98,10.0,10.0,57,0.00,,,0.00,810,Wunderground v.1.15,2013-06-22 16:30:00,
2013-06-22 11:40:00,83.2,66.4,29.85,SE,129,9.0,12.0,57,0.00,,,0.00,823,Wunderground v.1.15,2013-06-22 16:40:00,
2013-06-22 12:00:00,84.1,65.7,29.84,ESE,112,11.0,11.0,54,0.00,,,0.00,840,Wunderground v.1.15,2013-06-22 17:00:00,
2013-06-22 12:10:00,84.5,67.1,29.82,ESE,112,12.0,12.0,56,0.00,,,0.00,849,Wunderground v.1.15,2013-06-22 17:10:00,
2013-06-22 12:20:00,84.5,67.6,29.82,ESE,122,13.0,13.0,57,0.00,,,0.00,858,Wunderground v.1.15,2013-06-22 17:20:00,
2013-06-22 12:30:00,84.7,68.8,29.82,ESE,111,13.0,13.0,59,0.00,,,0.00,872,Wunderground v.1.15,2013-06-22 17:30:00,
2013-06-22 12:40:00,85.5,70.0,29.81,ESE,109,12.0,16.0,60,0.00,,,0.00,882,Wunderground v.1.15,2013-06-22 17:40:00,
2013-06-22 12:50:00,85.7,70.2,29.80,ESE,119,14.0,14.0,60,0.00,,,0.00,916,Wunderground v.1.15,2013-06-22 17:50:00,
2013-06-22 13:00:00,85.9,69.9,29.80,ESE,108,14.0,14.0,59,0.00,,,0.00,872,Wunderground v.1.15,2013-06-22 18:00:00,
2013-06-22 13:10:00,86.3,71.3,29.79,SSE,168,12.0,12.0,61,0.00,,,0.00,397,Wunderground v.1.15,2013-06-22 18:10:00,
2013-06-22 13:20:00,86.7,70.7,29.78,SE,132,13.0,19.0,59,0.00,,,0.00,926,Wunderground v.1.15,2013-06-22 18:20:00,
2013-06-22 13:30:00,87.6,69.4,29.78,SE,130,13.0,13.0,55,0.00,,,0.00,754,Wunderground v.1.15,2013-06-22 18:30:00,
2013-06-22 13:40:00,88.0,70.3,29.77,ESE,108,14.0,17.0,56,0.00,,,0.00,872,Wunderground v.1.15,2013-06-22 18:40:00,
2013-06-22 14:00:00,89.5,69.5,29.76,ESE,121,9.0,9.0,52,0.00,,,0.00,717,Wunderground v.1.15,2013-06-22 19:00:00,
2013-06-22 14:10:00,88.4,69.6,29.75,ESE,119,11.0,11.0,54,0.00,,,0.00,496,Wunderground v.1.15,2013-06-22 19:10:00,
2013-06-22 14:20:00,88.4,69.6,29.77,SE,142,4.0,4.0,54,0.00,,,0.00,548,Wunderground v.1.15,2013-06-22 19:20:00,
2013-06-22 14:30:00,88.8,69.5,29.77,NW,325,2.0,2.0,53,0.00,,,0.00,703,Wunderground v.1.15,2013-06-22 19:30:00,
2013-06-22 14:40:00,88.6,70.4,29.77,SE,124,2.0,2.0,55,0.00,,,0.00,529,Wunderground v.1.15,2013-06-22 19:40:00,
2013-06-22 14:50:00,88.8,69.5,29.76,SSE,158,1.0,1.0,53,0.00,,,0.00,621,Wunderground v.1.15,2013-06-22 19:50:00,
2013-06-22 15:00:00,89.7,69.7,29.76,SE,124,2.0,14.0,52,0.00,,,0.00,508,Wunderground v.1.15,2013-06-22 20:00:00,
2013-06-22 15:10:00,89.9,71.0,29.74,East,96,4.0,4.0,54,0.00,,,0.00,519,Wunderground v.1.15,2013-06-22 20:10:00,
2013-06-22 15:20:00,90.5,71.0,29.74,ESE,105,3.0,3.0,53,0.00,,,0.00,617,Wunderground v.1.15,2013-06-22 20:20:00,
2013-06-22 15:30:00,91.4,69.6,29.74,South,191,1.0,2.0,49,0.00,,,0.00,826,Wunderground v.1.15,2013-06-22 20:30:00,
2013-06-22 15:40:00,91.8,69.3,29.74,SE,142,3.0,3.0,48,0.00,,,0.00,733,Wunderground v.1.15,2013-06-22 20:40:00,
2013-06-22 15:50:00,92.3,68.5,29.73,WSW,240,2.0,4.0,46,0.00,,,0.00,568,Wunderground v.1.15,2013-06-22 20:50:00,
2013-06-22 16:00:00,92.5,69.3,29.73,SE,131,2.0,2.0,47,0.00,,,0.00,657,Wunderground v.1.15,2013-06-22 21:00:00,
2013-06-22 16:10:00,92.3,69.2,29.72,SSW,209,2.0,2.0,47,0.00,,,0.00,691,Wunderground v.1.15,2013-06-22 21:10:00,
2013-06-22 16:20:00,91.8,68.7,29.73,SW,229,4.0,4.0,47,0.00,,,0.00,682,Wunderground v.1.15,2013-06-22 21:20:00,
2013-06-22 16:30:00,91.4,68.3,29.73,SSW,195,4.0,4.0,47,0.00,,,0.00,621,Wunderground v.1.15,2013-06-22 21:30:00,
2013-06-22 16:40:00,91.6,67.9,29.73,South,180,2.0,2.0,46,0.00,,,0.00,506,Wunderground v.1.15,2013-06-22 21:40:00,
2013-06-22 16:50:00,91.2,69.4,29.73,South,186,2.0,2.0,49,0.00,,,0.00,548,Wunderground v.1.15,2013-06-22 21:50:00,
2013-06-22 17:00:00,91.4,69.0,29.73,SSW,198,1.0,5.0,48,0.00,,,0.00,519,Wunderground v.1.15,2013-06-22 22:00:00,
2013-06-22 17:10:00,90.7,68.9,29.73,SSE,159,1.0,1.0,49,0.00,,,0.00,232,Wunderground v.1.15,2013-06-22 22:10:00,
2013-06-22 17:20:00,90.5,69.3,29.73,SE,134,1.0,1.0,50,0.00,,,0.00,554,Wunderground v.1.15,2013-06-22 22:20:00,
2013-06-22 17:30:00,90.7,69.5,29.73,SSW,193,1.0,2.0,50,0.00,,,0.00,476,Wunderground v.1.15,2013-06-22 22:30:00,
2013-06-22 17:40:00,90.3,67.9,29.73,SSE,159,3.0,3.0,48,0.00,,,0.00,381,Wunderground v.1.15,2013-06-22 22:40:00,
2013-06-22 17:50:00,90.5,68.7,29.73,South,177,1.0,6.0,49,0.00,,,0.00,415,Wunderground v.1.15,2013-06-22 22:50:00,
2013-06-22 18:00:00,90.3,68.5,29.73,South,182,2.0,2.0,49,0.00,,,0.00,394,Wunderground v.1.15,2013-06-22 23:00:00,
2013-06-22 18:10:00,90.1,67.8,29.73,SW,227,3.0,3.0,48,0.00,,,0.00,288,Wunderground v.1.15,2013-06-22 23:10:00,
2013-06-22 18:20:00,89.5,66.6,29.73,SSW,199,3.0,6.0,47,0.00,,,0.00,334,Wunderground v.1.15,2013-06-22 23:20:00,
2013-06-22 18:30:00,89.9,66.3,29.73,SW,235,3.0,3.0,46,0.00,,,0.00,364,Wunderground v.1.15,2013-06-22 23:30:00,
2013-06-22 18:40:00,90.1,66.5,29.73,East,82,2.0,2.0,46,0.00,,,0.00,332,Wunderground v.1.15,2013-06-22 23:40:00,
2013-06-22 18:50:00,90.1,65.2,29.73,South,172,1.0,5.0,44,0.00,,,0.00,301,Wunderground v.1.15,2013-06-22 23:50:00,
2013-06-22 19:00:00,89.9,66.3,29.73,SSE,165,1.0,1.0,46,0.00,,,0.00,174,Wunderground v.1.15,2013-06-23 00:00:00,
2013-06-22 19:10:00,89.0,64.3,29.73,SSE,156,3.0,3.0,44,0.00,,,0.00,221,Wunderground v.1.15,2013-06-23 00:10:00,
2013-06-22 19:20:00,88.8,66.0,29.72,ESE,103,1.0,2.0,47,0.00,,,0.00,185,Wunderground v.1.15,2013-06-23 00:20:00,
2013-06-22 19:30:00,88.4,65.0,29.72,SSE,147,1.0,2.0,46,0.00,,,0.00,160,Wunderground v.1.15,2013-06-23 00:30:00,
2013-06-22 19:40:00,87.8,65.1,29.72,SSW,195,1.0,1.0,47,0.00,,,0.00,132,Wunderground v.1.15,2013-06-23 00:40:00,
2013-06-22 19:50:00,87.4,64.7,29.72,ESE,123,1.0,1.0,47,0.00,,,0.00,102,Wunderground v.1.15,2013-06-23 00:50:00,
2013-06-22 20:00:00,87.0,65.5,29.72,ESE,102,1.0,1.0,49,0.00,,,0.00,79,Wunderground v.1.15,2013-06-23 01:00:00,
2013-06-22 20:10:00,86.3,65.5,29.73,ESE,105,1.0,1.0,50,0.00,,,0.00,62,Wunderground v.1.15,2013-06-23 01:10:00,
2013-06-22 20:20:00,85.7,65.5,29.73,SSW,213,0.0,0.0,51,0.00,,,0.00,33,Wunderground v.1.15,2013-06-23 01:20:00,
2013-06-22 20:30:00,84.9,65.3,29.73,SE,145,1.0,1.0,52,0.00,,,0.00,11,Wunderground v.1.15,2013-06-23 01:30:00,
2013-06-22 20:40:00,84.5,65.5,29.73,South,178,0.0,0.0,53,0.00,,,0.00,5,Wunderground v.1.15,2013-06-23 01:40:00,
2013-06-22 20:50:00,84.0,65.6,29.73,ESE,109,0.0,0.0,54,0.00,,,0.00,0,Wunderground v.1.15,2013-06-23 01:50:00,
2013-06-22 21:00:00,83.4,65.5,29.73,SE,146,0.0,0.0,55,0.00,,,0.00,0,Wunderground v.1.15,2013-06-23 02:00:00,
2013-06-22 21:10:00,82.8,66.0,29.73,SE,139,0.0,0.0,57,0.00,,,0.00,0,Wunderground v.1.15,2013-06-23 02:10:00,
2013-06-22 21:20:00,82.4,65.6,29.73,ESE,111,0.0,0.0,57,0.00,,,0.00,0,Wunderground v.1.15,2013-06-23 02:20:00,
2013-06-22 21:30:00,82.4,65.6,29.73,ESE,115,0.0,0.0,57,0.00,,,0.00,0,Wunderground v.1.15,2013-06-23 02:30:00,
2013-06-22 21:40:00,82.2,65.4,29.73,ESE,103,1.0,1.0,57,0.00,,,0.00,0,Wunderground v.1.15,2013-06-23 02:40:00,
2013-06-22 21:50:00,82.2,66.0,29.75,East,96,1.0,1.0,58,0.00,,,0.00,0,Wunderground v.1.15,2013-06-23 02:50:00,
2013-06-22 22:00:00,81.8,66.1,29.75,ESE,103,0.0,0.0,59,0.00,,,0.00,0,Wunderground v.1.15,2013-06-23 03:00:00,
2013-06-22 22:10:00,81.6,66.4,29.75,ESE,103,0.0,0.0,60,0.00,,,0.00,0,Wunderground v.1.15,2013-06-23 03:10:00,
2013-06-22 22:20:00,81.6,66.4,29.76,ESE,123,1.0,1.0,60,0.00,,,0.00,0,Wunderground v.1.15,2013-06-23 03:20:00,
2013-06-22 22:30:00,81.4,67.1,29.76,East,97,0.0,3.0,62,0.00,,,0.00,0,Wunderground v.1.15,2013-06-23 03:30:00,
2013-06-22 22:40:00,81.2,66.9,29.76,East,81,1.0,1.0,62,0.00,,,0.00,0,Wunderground v.1.15,2013-06-23 03:40:00,
2013-06-22 22:50:00,81.1,67.3,29.77,East,101,1.0,1.0,63,0.00,,,0.00,0,Wunderground v.1.15,2013-06-23 03:50:00,
2013-06-22 23:00:00,80.9,67.6,29.77,ESE,121,0.0,4.0,64,0.00,,,0.00,0,Wunderground v.1.15,2013-06-23 04:00:00,
2013-06-22 23:10:00,80.7,67.8,29.77,ESE,118,0.0,0.0,65,0.00,,,0.00,0,Wunderground v.1.15,2013-06-23 04:10:00,
2013-06-22 23:20:00,80.5,67.6,29.76,ESE,106,0.0,0.0,65,0.00,,,0.00,0,Wunderground v.1.15,2013-06-23 04:20:00,
2013-06-22 23:30:00,80.7,67.8,29.76,South,175,1.0,1.0,65,0.00,,,0.00,0,Wunderground v.1.15,2013-06-23 04:30:00,
2013-06-22 23:40:00,80.7,67.4,29.76,ESE,111,1.0,1.0,64,0.00,,,0.00,0,Wunderground v.1.15,2013-06-23 04:40:00,
2013-06-22 23:50:00,80.7,67.4,29.76,South,182,0.0,0.0,64,0.00,,,0.00,0,Wunderground v.1.15,2013-06-23 04:50:00,